User: anonymous   Login
Location: Irma
(52.9170°N, 111.2330°W)
Time: 18:10:07
(UTC-06:00)
Language:

Cosmos 1633 Rocket - Orbit

View from above orbital plane
View from above orbital plane
View from above satellite
View from above satellite

Ground track
Ground track

The orbit data is extracted from the following two-line orbital elements,

1 15593U 85020B   17177.28331810 +.00000088 +00000-0 +76767-5 0  9991
2 15593 082.5385 254.1407 0012021 017.5553 042.4990 14.84277958724557
Epoch (UTC): 26 June 2017 06:47:58
Eccentricity: 0.0012021
inclination: 82.5385°
perigee height: 607 km
apogee height: 624 km
right ascension of ascending node: 254.1407°
argument of perigee: 17.5553°
revolutions per day: 14.84277958
mean anomaly at epoch: 42.4990°
orbit number at epoch: 72455

The dashed part of the orbit path shows where the satellite is in the earth's shadow,  

DLR